Year,Month,Day,Hour,Minute,Value (Times are PST for windgust in km/hr)
2010,04,01,00,00,0.00
2010,04,01,00,01,0.00
2010,04,01,00,02,0.00
2010,04,01,00,03,0.00
2010,04,01,00,04,0.00
2010,04,01,00,05,1.60
2010,04,01,00,06,0.00
2010,04,01,00,07,1.60
2010,04,01,00,08,1.60
2010,04,01,00,09,1.60
2010,04,01,00,10,1.60
2010,04,01,00,11,3.20
2010,04,01,00,12,3.20
2010,04,01,00,13,3.20
2010,04,01,00,14,4.80
2010,04,01,00,15,4.80
2010,04,01,00,16,4.80
2010,04,01,00,17,4.80
2010,04,01,00,18,4.80
2010,04,01,00,19,6.40
2010,04,01,00,20,4.80
2010,04,01,00,21,4.80
2010,04,01,00,22,4.80
2010,04,01,00,23,6.40
2010,04,01,00,24,4.80
2010,04,01,00,25,4.80
2010,04,01,00,26,4.80
2010,04,01,00,27,4.80
2010,04,01,00,28,4.80
2010,04,01,00,29,4.80
2010,04,01,00,30,4.80
2010,04,01,00,31,4.80
2010,04,01,00,32,4.80
2010,04,01,00,33,4.80
2010,04,01,00,34,4.80
2010,04,01,00,35,4.80
2010,04,01,00,36,4.80
2010,04,01,00,37,4.80
2010,04,01,00,38,4.80
2010,04,01,00,39,4.80
2010,04,01,00,40,4.80
2010,04,01,00,41,6.40
2010,04,01,00,42,4.80
2010,04,01,00,43,6.40
2010,04,01,00,44,6.40
2010,04,01,00,45,6.40
2010,04,01,00,46,6.40
2010,04,01,00,47,4.80
2010,04,01,00,48,6.40
2010,04,01,00,49,4.80
2010,04,01,00,50,6.40
2010,04,01,00,51,6.40
2010,04,01,00,52,6.40
2010,04,01,00,53,8.10
2010,04,01,00,54,6.40
2010,04,01,00,55,8.10
2010,04,01,00,56,6.40
2010,04,01,00,57,6.40
2010,04,01,00,58,6.40
2010,04,01,00,59,6.40
2010,04,01,01,00,6.40
2010,04,01,01,01,6.40
2010,04,01,01,02,6.40
2010,04,01,01,03,6.40
2010,04,01,01,04,6.40
2010,04,01,01,05,6.40
2010,04,01,01,06,6.40
2010,04,01,01,07,6.40
2010,04,01,01,08,6.40
2010,04,01,01,09,6.40
2010,04,01,01,10,6.40
2010,04,01,01,11,6.40
2010,04,01,01,12,6.40
2010,04,01,01,13,6.40
2010,04,01,01,14,6.40
2010,04,01,01,15,4.80
2010,04,01,01,16,6.40
2010,04,01,01,17,6.40
2010,04,01,01,18,6.40
2010,04,01,01,19,6.40
2010,04,01,01,20,6.40
2010,04,01,01,21,8.10
2010,04,01,01,22,6.40
2010,04,01,01,23,8.10
2010,04,01,01,24,6.40
2010,04,01,01,25,6.40
2010,04,01,01,26,9.60
2010,04,01,01,27,8.10
2010,04,01,01,28,8.10
2010,04,01,01,29,8.10
2010,04,01,01,30,6.40
2010,04,01,01,31,6.40
2010,04,01,01,32,6.40
2010,04,01,01,33,6.40
2010,04,01,01,34,4.80
2010,04,01,01,35,4.80
2010,04,01,01,36,6.40
2010,04,01,01,37,4.80
2010,04,01,01,38,6.40
2010,04,01,01,39,6.40
2010,04,01,01,40,8.10
2010,04,01,01,41,6.40
2010,04,01,01,42,6.40
2010,04,01,01,43,4.80
2010,04,01,01,44,6.40
2010,04,01,01,45,6.40
2010,04,01,01,46,6.40
2010,04,01,01,47,6.40
2010,04,01,01,48,8.10
2010,04,01,01,49,8.10
2010,04,01,01,50,6.40
2010,04,01,01,51,6.40
2010,04,01,01,52,6.40
2010,04,01,01,53,8.10
2010,04,01,01,54,6.40
2010,04,01,01,55,6.40
2010,04,01,01,56,6.40
2010,04,01,01,57,8.10
2010,04,01,01,58,6.40
2010,04,01,01,59,6.40
2010,04,01,02,00,6.40
2010,04,01,02,01,8.10
2010,04,01,02,02,6.40
2010,04,01,02,03,6.40
2010,04,01,02,04,6.40
2010,04,01,02,05,6.40
2010,04,01,02,06,6.40
2010,04,01,02,07,6.40
2010,04,01,02,08,4.80
2010,04,01,02,09,6.40
2010,04,01,02,10,6.40
2010,04,01,02,11,4.80
2010,04,01,02,12,4.80
2010,04,01,02,13,6.40
2010,04,01,02,14,4.80
2010,04,01,02,15,4.80
2010,04,01,02,16,3.20
2010,04,01,02,17,6.40
2010,04,01,02,18,3.20
2010,04,01,02,19,3.20
2010,04,01,02,20,4.80
2010,04,01,02,21,4.80
2010,04,01,02,22,6.40
2010,04,01,02,23,6.40
2010,04,01,02,24,8.10
2010,04,01,02,25,6.40
2010,04,01,02,26,6.40
2010,04,01,02,27,4.80
2010,04,01,02,28,6.40
2010,04,01,02,29,4.80
2010,04,01,02,30,6.40
2010,04,01,02,31,8.10
2010,04,01,02,32,4.80
2010,04,01,02,33,4.80
2010,04,01,02,34,3.20
2010,04,01,02,35,4.80
2010,04,01,02,36,6.40
2010,04,01,02,37,6.40
2010,04,01,02,38,6.40
2010,04,01,02,39,6.40
2010,04,01,02,40,6.40
2010,04,01,02,41,6.40
2010,04,01,02,42,8.10
2010,04,01,02,43,8.10
2010,04,01,02,44,6.40
2010,04,01,02,45,6.40
2010,04,01,02,46,6.40
2010,04,01,02,47,8.10
2010,04,01,02,48,9.60
2010,04,01,02,49,6.40
2010,04,01,02,50,8.10
2010,04,01,02,51,6.40
2010,04,01,02,52,6.40
2010,04,01,02,53,6.40
2010,04,01,02,54,6.40
2010,04,01,02,55,8.10
2010,04,01,02,56,6.40
2010,04,01,02,57,6.40
2010,04,01,02,58,4.80
2010,04,01,02,59,4.80
2010,04,01,03,00,4.80
2010,04,01,03,01,4.80
2010,04,01,03,02,4.80
2010,04,01,03,03,6.40
2010,04,01,03,04,4.80
2010,04,01,03,05,3.20
2010,04,01,03,06,4.80
2010,04,01,03,07,3.20
2010,04,01,03,08,3.20
2010,04,01,03,09,3.20
2010,04,01,03,10,3.20
2010,04,01,03,11,3.20
2010,04,01,03,12,3.20
2010,04,01,03,13,1.60
2010,04,01,03,14,1.60
2010,04,01,03,15,3.20
2010,04,01,03,16,1.60
2010,04,01,03,17,0.00
2010,04,01,03,18,1.60
2010,04,01,03,19,1.60
2010,04,01,03,20,1.60
2010,04,01,03,21,1.60
2010,04,01,03,22,3.20
2010,04,01,03,23,4.80
2010,04,01,03,24,3.20
2010,04,01,03,25,1.60
2010,04,01,03,26,1.60
2010,04,01,03,27,0.00
2010,04,01,03,28,6.40
2010,04,01,03,29,4.80
2010,04,01,03,30,3.20
2010,04,01,03,31,3.20
2010,04,01,03,32,4.80
2010,04,01,03,33,3.20
2010,04,01,03,34,1.60
2010,04,01,03,35,3.20
2010,04,01,03,36,3.20
2010,04,01,03,37,3.20
2010,04,01,03,38,4.80
2010,04,01,03,39,3.20
2010,04,01,03,40,6.40
2010,04,01,03,41,3.20
2010,04,01,03,42,4.80
2010,04,01,03,43,4.80
2010,04,01,03,44,6.40
2010,04,01,03,45,4.80
2010,04,01,03,46,4.80
2010,04,01,03,47,4.80
2010,04,01,03,48,3.20
2010,04,01,03,49,3.20
2010,04,01,03,50,3.20
2010,04,01,03,51,4.80
2010,04,01,03,52,6.40
2010,04,01,03,53,3.20
2010,04,01,03,54,6.40
2010,04,01,03,55,6.40
2010,04,01,03,56,3.20
2010,04,01,03,57,4.80
2010,04,01,03,58,6.40
2010,04,01,03,59,4.80
2010,04,01,04,00,6.40
2010,04,01,04,01,6.40
2010,04,01,04,02,8.10
2010,04,01,04,03,4.80
2010,04,01,04,04,4.80
2010,04,01,04,05,4.80
2010,04,01,04,06,4.80
2010,04,01,04,07,4.80
2010,04,01,04,08,4.80
2010,04,01,04,09,4.80
2010,04,01,04,10,6.40
2010,04,01,04,11,3.20
2010,04,01,04,12,4.80
2010,04,01,04,13,4.80
2010,04,01,04,14,4.80
2010,04,01,04,15,1.60
2010,04,01,04,16,0.00
2010,04,01,04,17,3.20
2010,04,01,04,18,4.80
2010,04,01,04,19,3.20
2010,04,01,04,20,3.20
2010,04,01,04,21,3.20
2010,04,01,04,22,3.20
2010,04,01,04,23,4.80
2010,04,01,04,24,8.10
2010,04,01,04,25,6.40
2010,04,01,04,26,4.80
2010,04,01,04,27,3.20
2010,04,01,04,28,6.40
2010,04,01,04,29,3.20
2010,04,01,04,30,1.60
2010,04,01,04,31,3.20
2010,04,01,04,32,1.60
2010,04,01,04,33,4.80
2010,04,01,04,34,1.60
2010,04,01,04,35,1.60
2010,04,01,04,36,3.20
2010,04,01,04,37,1.60
2010,04,01,04,38,1.60
2010,04,01,04,39,6.40
2010,04,01,04,40,3.20
2010,04,01,04,41,0.00
2010,04,01,04,42,4.80
2010,04,01,04,43,4.80
2010,04,01,04,44,3.20
2010,04,01,04,45,4.80
2010,04,01,04,46,4.80
2010,04,01,04,47,4.80
2010,04,01,04,48,4.80
2010,04,01,04,49,3.20
2010,04,01,04,50,6.40
2010,04,01,04,51,0.00
2010,04,01,04,52,0.00
2010,04,01,04,53,3.20
2010,04,01,04,54,6.40
2010,04,01,04,55,1.60
2010,04,01,04,56,6.40
2010,04,01,04,57,4.80
2010,04,01,04,58,1.60
2010,04,01,04,59,4.80
2010,04,01,05,00,4.80
2010,04,01,05,01,3.20
2010,04,01,05,02,4.80
2010,04,01,05,03,3.20
2010,04,01,05,04,3.20
2010,04,01,05,05,3.20
2010,04,01,05,06,4.80
2010,04,01,05,07,3.20
2010,04,01,05,08,3.20
2010,04,01,05,09,4.80
2010,04,01,05,10,4.80
2010,04,01,05,11,6.40
2010,04,01,05,12,6.40
2010,04,01,05,13,1.60
2010,04,01,05,14,4.80
2010,04,01,05,15,6.40
2010,04,01,05,16,3.20
2010,04,01,05,17,1.60
2010,04,01,05,18,4.80
2010,04,01,05,19,1.60
2010,04,01,05,20,3.20
2010,04,01,05,21,3.20
2010,04,01,05,22,6.40
2010,04,01,05,23,6.40
2010,04,01,05,24,4.80
2010,04,01,05,25,6.40
2010,04,01,05,26,6.40
2010,04,01,05,27,4.80
2010,04,01,05,28,3.20
2010,04,01,05,29,4.80
2010,04,01,05,30,6.40
2010,04,01,05,31,4.80
2010,04,01,05,32,8.10
2010,04,01,05,33,6.40
2010,04,01,05,34,6.40
2010,04,01,05,35,8.10
2010,04,01,05,36,4.80
2010,04,01,05,37,6.40
2010,04,01,05,38,6.40
2010,04,01,05,39,8.10
2010,04,01,05,40,8.10
2010,04,01,05,41,8.10
2010,04,01,05,42,6.40
2010,04,01,05,43,6.40
2010,04,01,05,44,9.60
2010,04,01,05,45,9.60
2010,04,01,05,46,9.60
2010,04,01,05,47,9.60
2010,04,01,05,48,8.10
2010,04,01,05,49,6.40
2010,04,01,05,50,9.60
2010,04,01,05,51,9.60
2010,04,01,05,52,8.10
2010,04,01,05,53,4.80
2010,04,01,05,54,3.20
2010,04,01,05,55,6.40
2010,04,01,05,56,1.60
2010,04,01,05,57,6.40
2010,04,01,05,58,6.40
2010,04,01,05,59,8.10
2010,04,01,06,00,4.80
2010,04,01,06,01,3.20
2010,04,01,06,02,6.40
2010,04,01,06,03,3.20
2010,04,01,06,04,3.20
2010,04,01,06,05,3.20
2010,04,01,06,06,3.20
2010,04,01,06,07,1.60
2010,04,01,06,08,1.60
2010,04,01,06,09,4.80
2010,04,01,06,10,6.40
2010,04,01,06,11,0.00
2010,04,01,06,12,0.00
2010,04,01,06,13,6.40
2010,04,01,06,14,8.10
2010,04,01,06,15,9.60
2010,04,01,06,16,8.10
2010,04,01,06,17,6.40
2010,04,01,06,18,6.40
2010,04,01,06,19,0.00
2010,04,01,06,20,1.60
2010,04,01,06,21,0.00
2010,04,01,06,22,4.80
2010,04,01,06,23,4.80
2010,04,01,06,24,3.20
2010,04,01,06,25,4.80
2010,04,01,06,26,8.10
2010,04,01,06,27,4.80
2010,04,01,06,28,4.80
2010,04,01,06,29,4.80
2010,04,01,06,30,4.80
2010,04,01,06,31,1.60
2010,04,01,06,32,4.80
2010,04,01,06,33,9.60
2010,04,01,06,34,4.80
2010,04,01,06,35,6.40
2010,04,01,06,36,4.80
2010,04,01,06,37,6.40
2010,04,01,06,38,4.80
2010,04,01,06,39,6.40
2010,04,01,06,40,4.80
2010,04,01,06,41,4.80
2010,04,01,06,42,4.80
2010,04,01,06,43,4.80
2010,04,01,06,44,4.80
2010,04,01,06,45,8.10
2010,04,01,06,46,8.10
2010,04,01,06,47,8.10
2010,04,01,06,48,9.60
2010,04,01,06,49,8.10
2010,04,01,06,50,8.10
2010,04,01,06,51,6.40
2010,04,01,06,52,4.80
2010,04,01,06,53,6.40
2010,04,01,06,54,14.50
2010,04,01,06,55,12.90
2010,04,01,06,56,14.50
2010,04,01,06,57,17.70
2010,04,01,06,58,12.90
2010,04,01,06,59,16.10
2010,04,01,07,00,16.10
2010,04,01,07,01,9.60
2010,04,01,07,02,16.10
2010,04,01,07,03,11.30
2010,04,01,07,04,11.30
2010,04,01,07,05,6.40
2010,04,01,07,06,4.80
2010,04,01,07,07,4.80
2010,04,01,07,08,4.80
2010,04,01,07,09,8.10
2010,04,01,07,10,6.40
2010,04,01,07,11,3.20
2010,04,01,07,12,8.10
2010,04,01,07,13,8.10
2010,04,01,07,14,4.80
2010,04,01,07,15,6.40
2010,04,01,07,16,4.80
2010,04,01,07,17,1.60
2010,04,01,07,18,3.20
2010,04,01,07,19,4.80
2010,04,01,07,20,4.80
2010,04,01,07,21,3.20
2010,04,01,07,22,3.20
2010,04,01,07,23,0.00
2010,04,01,07,24,3.20
2010,04,01,07,25,1.60
2010,04,01,07,26,0.00
2010,04,01,07,27,3.20
2010,04,01,07,28,0.00
2010,04,01,07,29,1.60
2010,04,01,07,30,1.60
2010,04,01,07,31,3.20
2010,04,01,07,32,3.20
2010,04,01,07,33,3.20
2010,04,01,07,34,3.20
2010,04,01,07,35,3.20
2010,04,01,07,36,0.00
2010,04,01,07,37,1.60
2010,04,01,07,38,1.60
2010,04,01,07,39,0.00
2010,04,01,07,40,3.20
2010,04,01,07,41,3.20
2010,04,01,07,42,1.60
2010,04,01,07,43,0.00
2010,04,01,07,44,3.20
2010,04,01,07,45,3.20
2010,04,01,07,46,3.20
2010,04,01,07,47,4.80
2010,04,01,07,48,0.00
2010,04,01,07,49,1.60
2010,04,01,07,50,0.00
2010,04,01,07,51,0.00
2010,04,01,07,52,0.00
2010,04,01,07,53,0.00
2010,04,01,07,54,0.00
2010,04,01,07,55,1.60
2010,04,01,07,56,8.10
2010,04,01,07,57,6.40
2010,04,01,07,58,4.80
2010,04,01,07,59,8.10
2010,04,01,08,00,1.60
2010,04,01,08,01,3.20
2010,04,01,08,02,4.80
2010,04,01,08,03,3.20
2010,04,01,08,04,1.60
2010,04,01,08,05,4.80
2010,04,01,08,06,3.20
2010,04,01,08,07,3.20
2010,04,01,08,08,3.20
2010,04,01,08,09,3.20
2010,04,01,08,10,3.20
2010,04,01,08,11,6.40
2010,04,01,08,12,4.80
2010,04,01,08,13,3.20
2010,04,01,08,14,4.80
2010,04,01,08,15,1.60
2010,04,01,08,16,3.20
2010,04,01,08,17,1.60
2010,04,01,08,18,3.20
2010,04,01,08,19,3.20
2010,04,01,08,20,3.20
2010,04,01,08,21,3.20
2010,04,01,08,22,1.60
2010,04,01,08,23,0.00
2010,04,01,08,24,0.00
2010,04,01,08,25,0.00
2010,04,01,08,26,1.60
2010,04,01,08,27,3.20
2010,04,01,08,28,3.20
2010,04,01,08,29,0.00
2010,04,01,08,30,3.20
2010,04,01,08,31,3.20
2010,04,01,08,32,3.20
2010,04,01,08,33,0.00
2010,04,01,08,34,4.80
2010,04,01,08,35,4.80
2010,04,01,08,36,1.60
2010,04,01,08,37,0.00
2010,04,01,08,38,3.20
2010,04,01,08,39,3.20
2010,04,01,08,40,0.00
2010,04,01,08,41,1.60
2010,04,01,08,42,0.00
2010,04,01,08,43,4.80
2010,04,01,08,44,4.80
2010,04,01,08,45,1.60
2010,04,01,08,46,1.60
2010,04,01,08,47,4.80
2010,04,01,08,48,6.40
2010,04,01,08,49,1.60
2010,04,01,08,50,0.00
2010,04,01,08,51,1.60
2010,04,01,08,52,0.00
2010,04,01,08,53,0.00
2010,04,01,08,54,1.60
2010,04,01,08,55,1.60
2010,04,01,08,56,1.60
2010,04,01,08,57,1.60
2010,04,01,08,58,3.20
2010,04,01,08,59,3.20
2010,04,01,09,00,3.20
2010,04,01,09,01,1.60
2010,04,01,09,02,3.20
2010,04,01,09,03,0.00
2010,04,01,09,04,0.00
2010,04,01,09,05,0.00
2010,04,01,09,06,1.60
2010,04,01,09,07,1.60
2010,04,01,09,08,0.00
2010,04,01,09,09,1.60
2010,04,01,09,10,4.80
2010,04,01,09,11,4.80
2010,04,01,09,12,3.20
2010,04,01,09,13,4.80
2010,04,01,09,14,6.40
2010,04,01,09,15,6.40
2010,04,01,09,16,3.20
2010,04,01,09,17,4.80
2010,04,01,09,18,4.80
2010,04,01,09,19,4.80
2010,04,01,09,20,3.20
2010,04,01,09,21,3.20
2010,04,01,09,22,3.20
2010,04,01,09,23,3.20
2010,04,01,09,24,6.40
2010,04,01,09,25,6.40
2010,04,01,09,26,6.40
2010,04,01,09,27,8.10
2010,04,01,09,28,14.50
2010,04,01,09,29,8.10
2010,04,01,09,30,1.60
2010,04,01,09,31,4.80
2010,04,01,09,32,4.80
2010,04,01,09,33,6.40
2010,04,01,09,34,6.40
2010,04,01,09,35,0.00
2010,04,01,09,36,14.50
2010,04,01,09,37,17.70
2010,04,01,09,38,16.10
2010,04,01,09,39,9.60
2010,04,01,09,40,9.60
2010,04,01,09,41,12.90
2010,04,01,09,42,14.50
2010,04,01,09,43,8.10
2010,04,01,09,44,9.60
2010,04,01,09,45,6.40
2010,04,01,09,46,14.50
2010,04,01,09,47,14.50
2010,04,01,09,48,11.30
2010,04,01,09,49,9.60
2010,04,01,09,50,8.10
2010,04,01,09,51,8.10
2010,04,01,09,52,6.40
2010,04,01,09,53,6.40
2010,04,01,09,54,1.60
2010,04,01,09,55,4.80
2010,04,01,09,56,1.60
2010,04,01,09,57,4.80
2010,04,01,09,58,6.40
2010,04,01,09,59,4.80
2010,04,01,10,00,8.10
2010,04,01,10,01,11.30
2010,04,01,10,02,9.60
2010,04,01,10,03,6.40
2010,04,01,10,04,6.40
2010,04,01,10,05,14.50
2010,04,01,10,06,8.10
2010,04,01,10,07,8.10
2010,04,01,10,08,11.30
2010,04,01,10,09,12.90
2010,04,01,10,10,9.60
2010,04,01,10,11,9.60
2010,04,01,10,12,8.10
2010,04,01,10,13,11.30
2010,04,01,10,14,11.30
2010,04,01,10,15,12.90
2010,04,01,10,16,16.10
2010,04,01,10,17,16.10
2010,04,01,10,18,9.60
2010,04,01,10,19,17.70
2010,04,01,10,20,17.70
2010,04,01,10,21,11.30
2010,04,01,10,22,11.30
2010,04,01,10,23,17.70
2010,04,01,10,24,14.50
2010,04,01,10,25,9.60
2010,04,01,10,26,14.50
2010,04,01,10,27,8.10
2010,04,01,10,28,11.30
2010,04,01,10,29,17.70
2010,04,01,10,30,17.70
2010,04,01,10,31,11.30
2010,04,01,10,32,16.10
2010,04,01,10,33,16.10
2010,04,01,10,34,11.30
2010,04,01,10,35,9.60
2010,04,01,10,36,9.60
2010,04,01,10,37,11.30
2010,04,01,10,38,9.60
2010,04,01,10,39,12.90
2010,04,01,10,40,19.30
2010,04,01,10,41,20.90
2010,04,01,10,42,19.30
2010,04,01,10,43,16.10
2010,04,01,10,44,11.30
2010,04,01,10,45,19.30
2010,04,01,10,46,12.90
2010,04,01,10,47,9.60
2010,04,01,10,48,6.40
2010,04,01,10,49,14.50
2010,04,01,10,50,17.70
2010,04,01,10,51,20.90
2010,04,01,10,52,20.90
2010,04,01,10,53,9.60
2010,04,01,10,54,9.60
2010,04,01,10,55,19.30
2010,04,01,10,56,14.50
2010,04,01,10,57,11.30
2010,04,01,10,58,16.10
2010,04,01,10,59,11.30
2010,04,01,11,00,14.50
2010,04,01,11,01,22.50
2010,04,01,11,02,16.10
2010,04,01,11,03,14.50
2010,04,01,11,04,14.50
2010,04,01,11,05,12.90
2010,04,01,11,06,16.10
2010,04,01,11,07,20.90
2010,04,01,11,08,16.10
2010,04,01,11,09,14.50
2010,04,01,11,10,11.30
2010,04,01,11,11,9.60
2010,04,01,11,12,12.90
2010,04,01,11,13,6.40
2010,04,01,11,14,16.10
2010,04,01,11,15,16.10
2010,04,01,11,16,11.30
2010,04,01,11,17,20.90
2010,04,01,11,18,24.20
2010,04,01,11,19,27.40
2010,04,01,11,20,20.90
2010,04,01,11,21,19.30
2010,04,01,11,22,8.10
2010,04,01,11,23,17.70
2010,04,01,11,24,20.90
2010,04,01,11,25,9.60
2010,04,01,11,26,11.30
2010,04,01,11,27,16.10
2010,04,01,11,28,16.10
2010,04,01,11,29,19.30
2010,04,01,11,30,22.50
2010,04,01,11,31,19.30
2010,04,01,11,32,17.70
2010,04,01,11,33,11.30
2010,04,01,11,34,11.30
2010,04,01,11,35,14.50
2010,04,01,11,36,16.10
2010,04,01,11,37,19.30
2010,04,01,11,38,9.60
2010,04,01,11,39,20.90
2010,04,01,11,40,17.70
2010,04,01,11,41,17.70
2010,04,01,11,42,20.90
2010,04,01,11,43,20.90
2010,04,01,11,44,19.30
2010,04,01,11,45,19.30
2010,04,01,11,46,20.90
2010,04,01,11,47,20.90
2010,04,01,11,48,16.10
2010,04,01,11,49,16.10
2010,04,01,11,50,16.10
2010,04,01,11,51,9.60
2010,04,01,11,52,19.30
2010,04,01,11,53,14.50
2010,04,01,11,54,16.10
2010,04,01,11,55,17.70
2010,04,01,11,56,6.40
2010,04,01,11,57,6.40
2010,04,01,11,58,6.40
2010,04,01,11,59,16.10
2010,04,01,12,00,17.70
2010,04,01,12,01,19.30
2010,04,01,12,02,8.10
2010,04,01,12,03,4.80
2010,04,01,12,04,16.10
2010,04,01,12,05,17.70
2010,04,01,12,06,22.50
2010,04,01,12,07,17.70
2010,04,01,12,08,11.30
2010,04,01,12,09,11.30
2010,04,01,12,10,4.80
2010,04,01,12,11,12.90
2010,04,01,12,12,20.90
2010,04,01,12,13,16.10
2010,04,01,12,14,16.10
2010,04,01,12,15,8.10
2010,04,01,12,16,14.50
2010,04,01,12,17,12.90
2010,04,01,12,18,16.10
2010,04,01,12,19,11.30
2010,04,01,12,20,6.40
2010,04,01,12,21,14.50
2010,04,01,12,22,9.60
2010,04,01,12,23,8.10
2010,04,01,12,24,17.70
2010,04,01,12,25,16.10
2010,04,01,12,26,19.30
2010,04,01,12,27,9.60
2010,04,01,12,28,16.10
2010,04,01,12,29,14.50
2010,04,01,12,30,9.60
2010,04,01,12,31,14.50
2010,04,01,12,32,19.30
2010,04,01,12,33,8.10
2010,04,01,12,34,9.60
2010,04,01,12,35,14.50
2010,04,01,12,36,8.10
2010,04,01,12,37,22.50
2010,04,01,12,38,20.90
2010,04,01,12,39,20.90
2010,04,01,12,40,17.70
2010,04,01,12,41,17.70
2010,04,01,12,42,20.90
2010,04,01,12,43,16.10
2010,04,01,12,44,20.90
2010,04,01,12,45,16.10
2010,04,01,12,46,24.20
2010,04,01,12,47,29.00
2010,04,01,12,48,22.50
2010,04,01,12,49,22.50
2010,04,01,12,50,24.20
2010,04,01,12,51,20.90
2010,04,01,12,52,16.10
2010,04,01,12,53,19.30
2010,04,01,12,54,22.50
2010,04,01,12,55,22.50
2010,04,01,12,56,20.90
2010,04,01,12,57,12.90
2010,04,01,12,58,11.30
2010,04,01,12,59,9.60
2010,04,01,13,00,9.60
2010,04,01,13,01,12.90
2010,04,01,13,02,17.70
2010,04,01,13,03,16.10
2010,04,01,13,04,19.30
2010,04,01,13,05,20.90
2010,04,01,13,06,17.70
2010,04,01,13,07,16.10
2010,04,01,13,08,19.30
2010,04,01,13,09,20.90
2010,04,01,13,10,19.30
2010,04,01,13,11,16.10
2010,04,01,13,12,19.30
2010,04,01,13,13,24.20
2010,04,01,13,14,20.90
2010,04,01,13,15,20.90
2010,04,01,13,16,17.70
2010,04,01,13,17,19.30
2010,04,01,13,18,16.10
2010,04,01,13,19,24.20
2010,04,01,13,20,25.70
2010,04,01,13,21,20.90
2010,04,01,13,22,16.10
2010,04,01,13,23,25.70
2010,04,01,13,24,25.70
2010,04,01,13,25,22.50
2010,04,01,13,26,19.30
2010,04,01,13,27,19.30
2010,04,01,13,28,14.50
2010,04,01,13,29,24.20
2010,04,01,13,30,17.70
2010,04,01,13,31,14.50
2010,04,01,13,32,16.10
2010,04,01,13,33,24.20
2010,04,01,13,34,16.10
2010,04,01,13,35,11.30
2010,04,01,13,36,17.70
2010,04,01,13,37,19.30
2010,04,01,13,38,20.90
2010,04,01,13,39,19.30
2010,04,01,13,40,8.10
2010,04,01,13,41,11.30
2010,04,01,13,42,11.30
2010,04,01,13,43,19.30
2010,04,01,13,44,17.70
2010,04,01,13,45,17.70
2010,04,01,13,46,19.30
2010,04,01,13,47,19.30
2010,04,01,13,48,16.10
2010,04,01,13,49,14.50
2010,04,01,13,50,19.30
2010,04,01,13,51,17.70
2010,04,01,13,52,20.90
2010,04,01,13,53,19.30
2010,04,01,13,54,17.70
2010,04,01,13,55,14.50
2010,04,01,13,56,11.30
2010,04,01,13,57,19.30
2010,04,01,13,58,19.30
2010,04,01,13,59,19.30
2010,04,01,14,00,14.50
2010,04,01,14,01,11.30
2010,04,01,14,02,22.50
2010,04,01,14,03,9.60
2010,04,01,14,04,14.50
2010,04,01,14,05,17.70
2010,04,01,14,06,22.50
2010,04,01,14,07,17.70
2010,04,01,14,08,17.70
2010,04,01,14,09,17.70
2010,04,01,14,10,22.50
2010,04,01,14,11,20.90
2010,04,01,14,12,14.50
2010,04,01,14,13,19.30
2010,04,01,14,14,17.70
2010,04,01,14,15,19.30
2010,04,01,14,16,14.50
2010,04,01,14,17,14.50
2010,04,01,14,18,14.50
2010,04,01,14,19,9.60
2010,04,01,14,20,14.50
2010,04,01,14,21,11.30
2010,04,01,14,22,9.60
2010,04,01,14,23,9.60
2010,04,01,14,24,14.50
2010,04,01,14,25,4.80
2010,04,01,14,26,6.40
2010,04,01,14,27,9.60
2010,04,01,14,28,6.40
2010,04,01,14,29,9.60
2010,04,01,14,30,16.10
2010,04,01,14,31,11.30
2010,04,01,14,32,6.40
2010,04,01,14,33,17.70
2010,04,01,14,34,16.10
2010,04,01,14,35,11.30
2010,04,01,14,36,16.10
2010,04,01,14,37,16.10
2010,04,01,14,38,19.30
2010,04,01,14,39,16.10
2010,04,01,14,40,9.60
2010,04,01,14,41,8.10
2010,04,01,14,42,11.30
2010,04,01,14,43,16.10
2010,04,01,14,44,17.70
2010,04,01,14,45,16.10
2010,04,01,14,46,19.30
2010,04,01,14,47,17.70
2010,04,01,14,48,9.60
2010,04,01,14,49,11.30
2010,04,01,14,50,9.60
2010,04,01,14,51,16.10
2010,04,01,14,52,16.10
2010,04,01,14,53,16.10
2010,04,01,14,54,16.10
2010,04,01,14,55,12.90
2010,04,01,14,56,11.30
2010,04,01,14,57,16.10
2010,04,01,14,58,9.60
2010,04,01,14,59,3.20
2010,04,01,15,00,8.10
2010,04,01,15,01,6.40
2010,04,01,15,02,6.40
2010,04,01,15,03,9.60
2010,04,01,15,04,14.50
2010,04,01,15,05,16.10
2010,04,01,15,06,16.10
2010,04,01,15,07,16.10
2010,04,01,15,08,9.60
2010,04,01,15,09,16.10
2010,04,01,15,10,11.30
2010,04,01,15,11,19.30
2010,04,01,15,12,17.70
2010,04,01,15,13,14.50
2010,04,01,15,14,14.50
2010,04,01,15,15,14.50
2010,04,01,15,16,16.10
2010,04,01,15,17,14.50
2010,04,01,15,18,11.30
2010,04,01,15,19,16.10
2010,04,01,15,20,16.10
2010,04,01,15,21,14.50
2010,04,01,15,22,14.50
2010,04,01,15,23,8.10
2010,04,01,15,24,8.10
2010,04,01,15,25,14.50
2010,04,01,15,26,14.50
2010,04,01,15,27,9.60
2010,04,01,15,28,14.50
2010,04,01,15,29,14.50
2010,04,01,15,30,11.30
2010,04,01,15,31,16.10
2010,04,01,15,32,9.60
2010,04,01,15,33,14.50
2010,04,01,15,34,16.10
2010,04,01,15,35,19.30
2010,04,01,15,36,17.70
2010,04,01,15,37,19.30
2010,04,01,15,38,19.30
2010,04,01,15,39,16.10
2010,04,01,15,40,19.30
2010,04,01,15,41,17.70
2010,04,01,15,42,16.10
2010,04,01,15,43,19.30
2010,04,01,15,44,19.30
2010,04,01,15,45,14.50
2010,04,01,15,46,12.90
2010,04,01,15,47,16.10
2010,04,01,15,48,17.70
2010,04,01,15,49,22.50
2010,04,01,15,50,24.20
2010,04,01,15,51,22.50
2010,04,01,15,52,24.20
2010,04,01,15,53,24.20
2010,04,01,15,54,16.10
2010,04,01,15,55,20.90
2010,04,01,15,56,19.30
2010,04,01,15,57,22.50
2010,04,01,15,58,17.70
2010,04,01,15,59,16.10
2010,04,01,16,00,9.60
2010,04,01,16,01,14.50
2010,04,01,16,02,16.10
2010,04,01,16,03,16.10
2010,04,01,16,04,16.10
2010,04,01,16,05,8.10
2010,04,01,16,06,6.40
2010,04,01,16,07,4.80
2010,04,01,16,08,4.80
2010,04,01,16,09,11.30
2010,04,01,16,10,12.90
2010,04,01,16,11,9.60
2010,04,01,16,12,11.30
2010,04,01,16,13,6.40
2010,04,01,16,14,9.60
2010,04,01,16,15,6.40
2010,04,01,16,16,4.80
2010,04,01,16,17,1.60
2010,04,01,16,18,9.60
2010,04,01,16,19,14.50
2010,04,01,16,20,17.70
2010,04,01,16,21,14.50
2010,04,01,16,22,12.90
2010,04,01,16,23,14.50
2010,04,01,16,24,16.10
2010,04,01,16,25,11.30
2010,04,01,16,26,11.30
2010,04,01,16,27,14.50
2010,04,01,16,28,9.60
2010,04,01,16,29,4.80
2010,04,01,16,30,4.80
2010,04,01,16,31,3.20
2010,04,01,16,32,8.10
2010,04,01,16,33,4.80
2010,04,01,16,34,8.10
2010,04,01,16,35,8.10
2010,04,01,16,36,11.30
2010,04,01,16,37,8.10
2010,04,01,16,38,8.10
2010,04,01,16,39,12.90
2010,04,01,16,40,11.30
2010,04,01,16,41,6.40
2010,04,01,16,42,8.10
2010,04,01,16,43,6.40
2010,04,01,16,44,3.20
2010,04,01,16,45,3.20
2010,04,01,16,46,4.80
2010,04,01,16,47,4.80
2010,04,01,16,48,4.80
2010,04,01,16,49,8.10
2010,04,01,16,50,8.10
2010,04,01,16,51,6.40
2010,04,01,16,52,9.60
2010,04,01,16,53,9.60
2010,04,01,16,54,3.20
2010,04,01,16,55,4.80
2010,04,01,16,56,8.10
2010,04,01,16,57,6.40
2010,04,01,16,58,6.40
2010,04,01,16,59,1.60
2010,04,01,17,00,1.60
2010,04,01,17,01,0.00
2010,04,01,17,02,1.60
2010,04,01,17,03,3.20
2010,04,01,17,04,1.60
2010,04,01,17,05,3.20
2010,04,01,17,06,3.20
2010,04,01,17,07,0.00
2010,04,01,17,08,4.80
2010,04,01,17,09,4.80
2010,04,01,17,10,4.80
2010,04,01,17,11,6.40
2010,04,01,17,12,4.80
2010,04,01,17,13,3.20
2010,04,01,17,14,3.20
2010,04,01,17,15,1.60
2010,04,01,17,16,1.60
2010,04,01,17,17,3.20
2010,04,01,17,18,1.60
2010,04,01,17,19,0.00
2010,04,01,17,20,3.20
2010,04,01,17,21,1.60
2010,04,01,17,22,1.60
2010,04,01,17,23,0.00
2010,04,01,17,24,0.00
2010,04,01,17,25,0.00
2010,04,01,17,26,0.00
2010,04,01,17,27,0.00
2010,04,01,17,28,0.00
2010,04,01,17,29,0.00
2010,04,01,17,30,3.20
2010,04,01,17,31,3.20
2010,04,01,17,32,3.20
2010,04,01,17,33,4.80
2010,04,01,17,34,3.20
2010,04,01,17,35,0.00
2010,04,01,17,36,3.20
2010,04,01,17,37,3.20
2010,04,01,17,38,1.60
2010,04,01,17,39,1.60
2010,04,01,17,40,0.00
2010,04,01,17,41,0.00
2010,04,01,17,42,0.00
2010,04,01,17,43,0.00
2010,04,01,17,44,0.00
2010,04,01,17,45,0.00
2010,04,01,17,46,3.20
2010,04,01,17,47,4.80
2010,04,01,17,48,4.80
2010,04,01,17,49,11.30
2010,04,01,17,50,4.80
2010,04,01,17,51,3.20